DW9167 Weather Reports


Display with metric or nautical units.
time (UTC)temp
F
wind
direction
speed
MPH
gust
MPH
rain 1hr
in
rain 24hr
in
rain mn
in
humidity
%
barometer
mb
20260831034617 84 139 2.0 6.0 0.00 0.00 0.00 65 1006.9
20260831033618 85 180 0.0 0.0 0.00 0.00 0.00 65 1006.6
20260831031717 85 135 1.0 2.0 0.00 0.00 0.00 63 1006.4
20260831030718 85 150 1.0 3.0 0.00 0.00 0.00 63 1006.0
20260831025718 85 266 0.0 2.0 0.00 0.00 0.00 63 1005.9
20260831024718 86 130 1.0 3.0 0.00 0.00 0.00 61 1005.7
20260831023816 86 138 3.0 8.0 0.00 0.00 0.00 61 1005.6
20260831023717 86 138 2.0 3.0 0.00 0.00 0.00 61 1005.6
20260831022716 86 112 2.0 5.0 0.00 0.00 0.00 61 1005.4
20260831021718 86 151 2.0 4.0 0.00 0.00 0.00 61 1005.0
20260831020717 87 156 2.0 4.0 0.00 0.00 0.00 60 1004.9
20260831015718 87 174 1.0 5.0 0.00 0.00 0.00 59 1004.9
20260831014718 88 116 1.0 4.0 0.00 0.00 0.00 56 1004.5
20260831013718 89 124 2.0 5.0 0.00 0.00 0.00 52 1004.2
20260831012816 89 216 0.0 4.0 0.00 0.00 0.00 47 1004.2
20260831011818 89 90 0.0 0.0 0.00 0.00 0.00 46 1003.8
20260831010817 90 90 0.0 0.0 0.00 0.00 0.00 46 1003.8
20260831005816 90 90 0.0 0.0 0.00 0.00 0.00 46 1003.8
20260831004819 91 90 0.0 0.0 0.00 0.00 0.00 45 1003.5
20260831002817 91 135 0.0 0.0 0.00 0.00 0.00 45 1003.5
20260831001916 91 112 1.0 2.0 0.00 0.00 0.00 45 1003.5
20260831000917 92 112 0.0 0.0 0.00 0.00 0.00 44 1003.5
20260830235917 92 135 0.0 1.0 0.00 0.00 0.00 44 1003.5
20260830235017 92 141 2.0 5.0 0.00 0.00 0.00 44 1003.5
20260830234019 93 112 0.0 2.0 0.00 0.00 0.00 42 1003.5
20260830233118 94 112 0.0 0.0 0.00 0.00 0.00 42 1003.5
20260830232118 97 135 1.0 3.0 0.00 0.00 0.00 40 1003.2
20260830230219 98 157 1.0 4.0 0.00 0.00 0.00 40 1002.8
20260830225218 99 169 0.0 3.0 0.00 0.00 0.00 38 1002.8
20260830224216 99 180 0.0 2.0 0.00 0.00 0.00 40 1002.8
20260830223218 99 131 0.0 4.0 0.00 0.00 0.00 38 1002.8
20260830222316 99 157 0.0 1.0 0.00 0.00 0.00 39 1002.8
20260830221318 99 151 1.0 3.0 0.00 0.00 0.00 38 1002.8
20260830220316 99 113 0.0 2.0 0.00 0.00 0.00 39 1003.2
20260830215318 98 112 1.0 4.0 0.00 0.00 0.00 40 1003.2
20260830214417 98 170 1.0 3.0 0.00 0.00 0.00 40 1003.2
20260830213515 97 270 0.0 2.0 0.00 0.00 0.00 41 1003.5
20260830212519 95 145 1.0 3.0 0.00 0.00 0.00 41 1004.2
20260830211519 95 144 2.0 5.0 0.00 0.00 0.00 42 1004.2
20260830210617 95 131 1.0 5.0 0.00 0.00 0.00 43 1004.5
20260830205617 94 135 1.0 5.0 0.00 0.00 0.00 43 1004.5
20260830203618 96 158 1.0 6.0 0.00 0.00 0.00 44 1004.5
20260830202617 95 270 0.0 1.0 0.00 0.00 0.00 44 1004.9
20260830201618 94 180 1.0 5.0 0.00 0.00 0.00 46 1005.2
20260830200618 95 116 1.0 4.0 0.00 0.00 0.00 43 1005.2
20260830195617 93 112 0.0 2.0 0.00 0.00 0.00 47 1005.2
20260830194619 94 119 1.0 5.0 0.00 0.00 0.00 47 1005.9
20260830193618 93 153 2.0 5.0 0.00 0.00 0.00 48 1005.9
20260830192617 94 179 1.0 3.0 0.00 0.00 0.00 47 1005.9
20260830191716 95 186 1.0 5.0 0.00 0.00 0.00 46 1006.1
20260830190718 94 119 0.0 2.0 0.00 0.00 0.00 47 1006.4
20260830185717 93 266 3.0 6.0 0.00 0.00 0.00 48 1006.6
20260830184718 93 90 1.0 5.0 0.00 0.00 0.00 48 1006.6
20260830183717 94 77 0.0 0.0 0.00 0.00 0.00 48 1006.8
20260830182718 92 135 0.0 1.0 0.00 0.00 0.00 51 1006.9
20260830180819 92 294 1.0 5.0 0.00 0.00 0.00 52 1007.6
20260830174818 91 180 0.0 0.0 0.00 0.00 0.00 52 1008.0
20260830173917 91 213 1.0 5.0 0.00 0.00 0.00 54 1008.3
20260830173016 91 180 0.0 4.0 0.00 0.00 0.00 53 1008.0
20260830171019 89 180 0.0 3.0 0.00 0.00 0.00 59 1008.7
20260830170017 89 180 0.0 2.0 0.00 0.00 0.00 60 1008.7
20260830165116 88 180 0.0 2.0 0.00 0.00 0.00 61 1009.0
20260830164118 89 121 2.0 5.0 0.00 0.00 0.00 61 1009.0
20260830163118 87 172 0.0 0.0 0.00 0.00 0.00 67 1009.0
20260830162116 86 158 0.0 2.0 0.00 0.00 0.00 68 1009.0
20260830161118 85 267 1.0 5.0 0.00 0.00 0.00 72 1009.4
20260830155216 84 292 1.0 4.0 0.00 0.00 0.00 73 1009.4
20260830154218 84 196 0.0 5.0 0.00 0.00 0.00 74 1009.4
20260830153218 82 323 1.0 5.0 0.00 0.00 0.00 79 1009.4
20260830152217 81 292 1.0 4.0 0.00 0.00 0.00 83 1009.7
20260830144217 80 268 0.0 3.0 0.00 0.00 0.00 87 1009.7
20260830143217 79 360 0.0 0.0 0.00 0.00 0.00 90 1009.7
20260830142315 79 302 0.0 1.0 0.00 0.00 0.00 93 1009.7
20260830141319 78 297 1.0 5.0 0.00 0.00 0.00 93 1009.7
20260830140318 78 259 1.0 4.0 0.00 0.00 0.00 95 1009.7
20260830135416 77 2 0.0 3.0 0.00 0.00 0.00 95 1009.7
20260830134416 77 196 1.0 7.0 0.00 0.00 0.00 96 1009.7
20260830133416 76 181 3.0 5.0 0.00 0.00 0.00 97 1009.7
20260830132416 76 284 1.0 5.0 0.00 0.00 0.00 97 1009.7
20260830131418 76 180 0.0 2.0 0.00 0.00 0.00 97 1009.7
20260830125417 75 157 0.0 0.0 0.00 0.00 0.00 96 1009.7
20260830124417 75 169 0.0 2.0 0.00 0.00 0.00 96 1009.7
20260830123416 75 180 1.0 4.0 0.00 0.00 0.00 96 1009.7
20260830122418 74 180 0.0 0.0 0.00 0.00 0.00 96 1009.4
20260830120418 74 166 1.0 5.0 0.00 0.00 0.00 96 1009.4
20260830115418 75 135 0.0 0.0 0.00 0.00 0.00 96 1009.4
20260830114418 75 178 2.0 5.0 0.00 0.00 0.00 96 1009.4
20260830113417 75 179 1.0 5.0 0.00 0.00 0.00 96 1009.0
20260830112516 75 157 0.0 0.0 0.00 0.00 0.00 96 1009.0
20260830111516 75 152 0.0 2.0 0.00 0.00 0.00 96 1009.0
20260830110518 75 70 0.0 3.0 0.00 0.00 0.00 96 1009.0
20260830103617 75 157 0.0 2.0 0.00 0.00 0.00 96 1009.0
20260830101615 75 159 1.0 3.0 0.00 0.00 0.00 95 1009.0
20260830100618 76 157 1.0 3.0 0.00 0.00 0.00 95 1009.0
20260830094715 76 180 1.0 5.0 0.00 0.00 0.00 93 1008.7
20260830093716 76 180 0.0 0.0 0.00 0.00 0.00 92 1008.7
20260830092717 76 157 0.0 2.0 0.00 0.00 0.00 91 1008.7
20260830091815 76 157 0.0 0.0 0.00 0.00 0.00 90 1008.7
20260830090817 76 180 0.0 0.0 0.00 0.00 0.00 88 1009.0
20260830085819 76 177 0.0 2.0 0.00 0.00 0.00 87 1008.7
20260830084817 77 180 0.0 1.0 0.00 0.00 0.00 87 1008.7
20260830083817 77 162 1.0 4.0 0.00 0.00 0.00 85 1008.7
20260830082817 77 177 0.0 3.0 0.00 0.00 0.00 85 1008.6
20260830081817 77 178 1.0 3.0 0.00 0.00 0.00 85 1008.3
20260830080820 77 163 0.0 4.0 0.00 0.00 0.00 84 1008.7
20260830075915 77 180 0.0 0.0 0.00 0.00 0.00 84 1008.7
20260830074916 78 165 1.0 5.0 0.00 0.00 0.00 83 1009.0
20260830073016 78 180 0.0 2.0 0.00 0.00 0.00 82 1009.0
20260830072017 78 180 0.0 0.0 0.00 0.00 0.00 81 1008.7
20260830071017 79 180 0.0 4.0 0.00 0.00 0.00 81 1009.0
20260830070016 78 180 2.0 5.0 0.00 0.00 0.00 79 1009.0
20260830065016 79 180 0.0 0.0 0.00 0.00 0.00 79 1009.0
20260830064016 79 194 1.0 5.0 0.00 0.00 0.00 79 1008.7
20260830063018 80 151 1.0 3.0 0.00 0.00 0.00 77 1008.7
20260830062016 80 157 0.0 4.0 0.00 0.00 0.00 76 1008.7
20260830061017 80 193 4.0 6.0 0.00 0.00 0.00 76 1008.3
20260830060015 81 169 1.0 3.0 0.00 0.00 0.00 74 1008.3
20260830055039 80 164 3.0 7.0 0.00 0.00 0.00 74 1008.3
20260830054115 81 143 1.0 4.0 0.00 0.00 0.00 74 1008.3
20260830052115 81 173 1.0 5.0 0.00 0.00 0.00 73 1008.3
20260830051115 81 175 3.0 5.0 0.00 0.00 0.00 72 1008.3
20260830050116 82 360 2.0 4.0 0.00 0.00 0.00 72 1008.3
20260830045131 82 145 0.0 2.0 0.00 0.00 0.00 72 1008.0
20260830043130 83 179 3.0 7.0 0.00 0.00 0.00 71 1008.0
20260830042131 83 174 3.0 6.0 0.00 0.00 0.00 71 1008.0
20260830041229 83 170 1.0 6.0 0.00 0.00 0.00 71 1008.0
20260830040230 83 125 0.0 1.0 0.00 0.00 0.00 70 1008.0
20260830035229 84 156 0.0 1.0 0.00 0.00 0.00 70 1007.6